When you browse on this site, cookies collect data to enhance your experience and personalize the content and advertising you see.
Visit our Privacy Policy to learn more. By continuing to use the site, you agree to this use of cookies and data.
  • Em Portugal
  • Lista de países
  • Para 7 dias
  • Temperatura da água
  • Mapa do tempo
  • Widgets de tempo
  • user-avatar
    Iniciar Sessão

    Previsão horária em Tibissa

    Hoje, 29 Janeiro, Quarta-feira

    Tempo Temperatura Precipitação Vento Pressão Humidade
    00:00 +8°C° 0 mm 1 m/s 688 mmHg 64%
    01:00 +8°C° 0 mm 1 m/s 688 mmHg 64%
    02:00 +8°C° 0 mm 1 m/s 688 mmHg 63%
    03:00 +8°C° 0 mm 1 m/s 688 mmHg 62%
    04:00 +7°C° 0 mm 2 m/s 687 mmHg 60%
    05:00 +7°C° 0 mm 2 m/s 687 mmHg 61%
    06:00 +7°C° 0 mm 2 m/s 688 mmHg 61%
    07:00 +8°C° 0 mm 1 m/s 688 mmHg 61%
    08:00 +8°C° 0 mm 2 m/s 688 mmHg 57%
    09:00 +10°C° 0 mm 2 m/s 689 mmHg 52%
    10:00 +13°C° 0 mm 2 m/s 689 mmHg 48%
    11:00 +14°C° 0 mm 2 m/s 689 mmHg 46%
    12:00 +14°C° 0 mm 3 m/s 690 mmHg 44%
    13:00 +16°C° 0 mm 3 m/s 690 mmHg 42%
    14:00 +15°C° 0 mm 4 m/s 689 mmHg 41%
    15:00 +15°C° 0 mm 4 m/s 689 mmHg 41%
    16:00 +15°C° 0 mm 4 m/s 689 mmHg 40%
    17:00 +14°C° 0 mm 3 m/s 689 mmHg 47%
    18:00 +13°C° 0 mm 3 m/s 689 mmHg 54%
    19:00 +12°C° 0 mm 2 m/s 689 mmHg 61%
    20:00 +11°C° 0 mm 1 m/s 689 mmHg 66%
    21:00 +11°C° 0 mm 1 m/s 689 mmHg 71%
    22:00 +9°C° 0 mm 0 m/s 689 mmHg 76%
    23:00 +9°C° 0 mm 0 m/s 689 mmHg 76%

    Amanhã, 30 Janeiro, Quinta-feira

    Tempo Temperatura Precipitação Vento Pressão Humidade
    00:00 +9°C° 0 mm 0 m/s 689 mmHg 77%
    01:00 +10°C° 0 mm 1 m/s 689 mmHg 78%
    02:00 +9°C° 0 mm 1 m/s 689 mmHg 79%
    03:00 +9°C° 0 mm 1 m/s 688 mmHg 81%
    04:00 +8°C° 0 mm 1 m/s 688 mmHg 82%
    05:00 +7°C° 0 mm 0 m/s 688 mmHg 83%
    06:00 +7°C° 0 mm 0 m/s 688 mmHg 83%
    07:00 +6°C° 0 mm 0 m/s 688 mmHg 84%
    08:00 +8°C° 0 mm 0 m/s 689 mmHg 75%
    09:00 +10°C° 0 mm 0 m/s 689 mmHg 66%
    10:00 +12°C° 0 mm 0 m/s 690 mmHg 57%
    11:00 +14°C° 0 mm 1 m/s 690 mmHg 53%
    12:00 +15°C° 0 mm 1 m/s 690 mmHg 48%
    13:00 +16°C° 0 mm 2 m/s 690 mmHg 44%
    14:00 +16°C° 0 mm 2 m/s 690 mmHg 43%
    15:00 +17°C° 0 mm 2 m/s 690 mmHg 42%
    16:00 +17°C° 0 mm 2 m/s 689 mmHg 41%
    17:00 +16°C° 0 mm 1 m/s 689 mmHg 47%
    18:00 +15°C° 0 mm 1 m/s 689 mmHg 52%
    19:00 +14°C° 0 mm 1 m/s 689 mmHg 57%
    20:00 +13°C° 0 mm 1 m/s 689 mmHg 60%
    21:00 +12°C° 0 mm 1 m/s 689 mmHg 63%
    22:00 +10°C° 0 mm 0 m/s 689 mmHg 66%
    23:00 +11°C° 0 mm 1 m/s 689 mmHg 67%

    Depois de amanhã, 31 Janeiro, Sexta-feira

    Tempo Temperatura Precipitação Vento Pressão Humidade
    00:00 +11°C° 0 mm 1 m/s 688 mmHg 68%
    01:00 +10°C° 0 mm 1 m/s 688 mmHg 68%
    02:00 +10°C° 0 mm 1 m/s 688 mmHg 70%
    03:00 +8°C° 0 mm 0 m/s 688 mmHg 72%
    04:00 +8°C° 0 mm 0 m/s 687 mmHg 75%
    05:00 +7°C° 0 mm 0 m/s 687 mmHg 76%
    06:00 +7°C° 0 mm 0 m/s 687 mmHg 77%
    07:00 +7°C° 0 mm 0 m/s 687 mmHg 79%
    08:00 +9°C° 0 mm 0 m/s 688 mmHg 70%
    09:00 +11°C° 0 mm 0 m/s 688 mmHg 61%
    10:00 +13°C° 0 mm 0 m/s 689 mmHg 52%
    11:00 +15°C° 0 mm 1 m/s 689 mmHg 47%
    12:00 +15°C° 0 mm 2 m/s 689 mmHg 42%
    13:00 +16°C° 0 mm 2 m/s 689 mmHg 37%
    14:00 +16°C° 0 mm 3 m/s 689 mmHg 36%
    15:00 +16°C° 0 mm 3 m/s 688 mmHg 35%
    16:00 +16°C° 0 mm 3 m/s 688 mmHg 34%
    17:00 +14°C° 0 mm 3 m/s 688 mmHg 41%
    18:00 +14°C° 0 mm 2 m/s 688 mmHg 48%
    19:00 +12°C° 0 mm 2 m/s 688 mmHg 55%
    20:00 +12°C° 0 mm 2 m/s 688 mmHg 59%
    21:00 +11°C° 0 mm 1 m/s 688 mmHg 63%
    22:00 +10°C° 0 mm 1 m/s 688 mmHg 67%
    23:00 +9°C° 0 mm 0 m/s 688 mmHg 68%

    1 Fevereiro, Sábado

    Tempo Temperatura Precipitação Vento Pressão Humidade
    00:00 +9°C° 0 mm 0 m/s 687 mmHg 69%
    01:00 +8°C° 0 mm 0 m/s 687 mmHg 71%
    02:00 +8°C° 0 mm 0 m/s 687 mmHg 71%
    03:00 +7°C° 0 mm 0 m/s 687 mmHg 72%
    04:00 +7°C° 0 mm 0 m/s 687 mmHg 73%
    05:00 +7°C° 0 mm 0 m/s 687 mmHg 74%
    06:00 +7°C° 0 mm 0 m/s 687 mmHg 75%
    07:00 +6°C° 0 mm 0 m/s 687 mmHg 77%
    08:00 +9°C° 0 mm 1 m/s 687 mmHg 69%
    09:00 +11°C° 0 mm 1 m/s 688 mmHg 62%
    10:00 +12°C° 0 mm 1 m/s 689 mmHg 55%
    11:00 +13°C° 0 mm 2 m/s 689 mmHg 53%
    12:00 +13°C° 0 mm 3 m/s 689 mmHg 50%
    13:00 +14°C° 0 mm 3 m/s 689 mmHg 48%
    14:00 +14°C° 0 mm 4 m/s 689 mmHg 48%
    15:00 +15°C° 0 mm 5 m/s 689 mmHg 49%
    16:00 +15°C° 0 mm 5 m/s 689 mmHg 49%
    17:00 +13°C° 0 mm 4 m/s 689 mmHg 58%
    18:00 +12°C° 0 mm 4 m/s 689 mmHg 67%
    19:00 +11°C° 0 mm 3 m/s 689 mmHg 76%
    20:00 +10°C° 0 mm 3 m/s 689 mmHg 79%
    21:00 +10°C° 0 mm 3 m/s 689 mmHg 83%
    22:00 +9°C° 0 mm 2 m/s 690 mmHg 86%
    23:00 +9°C° 0 mm 2 m/s 690 mmHg 86%

    2 Fevereiro, Domingo

    Tempo Temperatura Precipitação Vento Pressão Humidade
    00:00 +9°C° 0 mm 3 m/s 690 mmHg 85%
    01:00 +9°C° 0 mm 3 m/s 690 mmHg 84%
    02:00 +9°C° 0 mm 3 m/s 689 mmHg 84%
    03:00 +8°C° 0 mm 4 m/s 689 mmHg 83%
    04:00 +7°C° 0 mm 4 m/s 689 mmHg 83%
    05:00 +7°C° 0 mm 4 m/s 689 mmHg 84%
    06:00 +7°C° 0 mm 4 m/s 689 mmHg 86%
    07:00 +8°C° 0 mm 3 m/s 689 mmHg 87%
    08:00 +8°C° 0 mm 4 m/s 690 mmHg 82%
    09:00 +9°C° 0 mm 5 m/s 691 mmHg 77%
    10:00 +10°C° 0 mm 6 m/s 691 mmHg 72%
    11:00 +13°C° 0 mm 6 m/s 691 mmHg 66%
    12:00 +14°C° 0 mm 7 m/s 692 mmHg 59%
    13:00 +15°C° 0 mm 7 m/s 692 mmHg 53%
    14:00 +15°C° 0 mm 7 m/s 692 mmHg 52%
    15:00 +15°C° 0 mm 7 m/s 691 mmHg 50%
    16:00 +16°C° 0 mm 6 m/s 691 mmHg 49%
    17:00 +14°C° 0 mm 5 m/s 691 mmHg 55%
    18:00 +13°C° 0 mm 4 m/s 691 mmHg 62%
    19:00 +12°C° 0 mm 3 m/s 690 mmHg 68%
    20:00 +11°C° 0 mm 3 m/s 691 mmHg 70%
    21:00 +11°C° 0 mm 3 m/s 691 mmHg 72%
    22:00 +11°C° 0 mm 3 m/s 691 mmHg 74%
    23:00 +10°C° 0 mm 3 m/s 691 mmHg 77%

    3 Fevereiro, Segunda-feira

    Tempo Temperatura Precipitação Vento Pressão Humidade
    00:00 +10°C° 0 mm 3 m/s 691 mmHg 80%
    01:00 +9°C° 0 mm 3 m/s 691 mmHg 83%
    02:00 +9°C° 0 mm 3 m/s 691 mmHg 84%
    03:00 +9°C° 0 mm 3 m/s 690 mmHg 85%
    04:00 +8°C° 0 mm 3 m/s 690 mmHg 86%
    05:00 +8°C° 0 mm 3 m/s 690 mmHg 86%
    06:00 +8°C° 0 mm 3 m/s 690 mmHg 85%
    07:00 +8°C° 0 mm 3 m/s 690 mmHg 85%
    08:00 +9°C° 0 mm 3 m/s 691 mmHg 77%
    09:00 +11°C° 0 mm 3 m/s 691 mmHg 69%
    10:00 +13°C° 0 mm 4 m/s 692 mmHg 61%
    11:00 +14°C° 0 mm 4 m/s 692 mmHg 56%
    12:00 +15°C° 0 mm 4 m/s 692 mmHg 51%
    13:00 +16°C° 0 mm 5 m/s 692 mmHg 46%
    14:00 +17°C° 0 mm 5 m/s 692 mmHg 46%
    15:00 +17°C° 0 mm 5 m/s 692 mmHg 46%
    16:00 +18°C° 0 mm 4 m/s 692 mmHg 45%
    17:00 +17°C° 0 mm 3 m/s 691 mmHg 52%
    18:00 +15°C° 0 mm 2 m/s 691 mmHg 58%
    19:00 +14°C° 0 mm 1 m/s 691 mmHg 65%
    20:00 +13°C° 0 mm 1 m/s 691 mmHg 67%
    21:00 +12°C° 0 mm 1 m/s 691 mmHg 70%
    22:00 +11°C° 0 mm 0 m/s 691 mmHg 73%
    23:00 +11°C° 0 mm 1 m/s 691 mmHg 74%
    Mostrar mais